Погода в Старом Мостяке

Россия / Ульяновская область     52°41′50″N   47°24′37″E
темп.,
°C
ветер,
м/с
пор.,
м/с
влажн.,
%
обл.,
%
осадки,
мм/ч
давл.,
гПа
погр.,
м
18 мая, вт
вт1801:00+18ссв22495 0.0 101611
04:00+16всв22525 0.0 101611
07:00+19всв28550 0.0 1016192
10:00+24вюв58380 0.0 1015445
13:00+28юв57330 0.0 10151040
16:00+29вюв58311 0.0 10142666
19:00+25в411475 0.0 1013214
22:00+20всв35440 0.0 101459
19 мая, ср
ср1901:00+18всв34490 0.0 101343
04:00+16всв38470 0.0 1013105
07:00+18в512695 0.0 1013275
10:00+24в711533 0.0 1013557
13:00+28вюв811380 0.0 10121768
16:00+29вюв69370 0.0 10122882
19:00+25вюв49511 0.0 1012218
22:00+23в715559 0.0 1013589
20 мая, чт
чт2001:00+20вюв717590 0.0 1013698
04:00+18вюв614690 0.0 1013447
07:00+18юв714710 0.0 1014768
10:00+21юв8116268 0.0 10141153
13:00+22юв81360100 0.4 10131908
16:00+14з4690100 2.1 1015229
19:00+17вюв3485100 1.3 1016318
22:00+14вюв229698 1.8 101647
21 мая, пт
пт2101:00+14ююв2296100 0.1 101623
04:00+13ю229489 0.1 101713
07:00+15ю22840 0.0 1018176
10:00+19ююз456495 0.0 10191006
13:00+21юз555392 0.1 10191833
16:00+21з4456100 0.1 10201325
19:00+21юз236183 0.0 1020100
22:00+16ююз116841 0.0 102111
22 мая, сб
сб2201:00+15юз117542 0.0 102211
04:00+14ююв11755 0.0 102211
07:00+17юв126964 0.0 1023109
10:00+22ююв46535 0.0 1023803
13:00+25ююв564686 0.0 10221426
16:00+26ююв5642100 0.0 10211596
19:00+24юв37565 0.0 1020162
22:00+19вюв22609 0.0 102111